Flag for Canada Weather past 2 weeks in Red Deer, Alberta, Canada

5 °F

Passing clouds.

Feels Like: -4 °F
Forecast: -5 / 19 °F
Wind: 5 mph from West

Location: Red Deer

Current Time: Nov 24, 2015 at 10:21:42 PM

Latest Report: Nov 24, 2015 at 9:00 PM

Visibility: 15 mi

Pressure: 30.46 "Hg (27.19 "Hg at 857m altitude)

Humidity: 85%

Dew point: 1 °F

Location of Red DeerLocation

Historic Weather in Red Deer — Graph


Red Deer temperature yesterday

Maximum temperature yesterday: 32 °F (at 1:00 PM)
Minimum temperature yesterday: 12 °F (at 3:00 AM)
Average temperature yesterday: 23 °F

Past Weeks' High & Low Weather Summary

High52 °F (Nov 13, 1:00 PM)100% (Nov 10, 5:00 AM)30.48 "Hg (Nov 10, 5:00 AM)
Low5 °F (Nov 18, 11:00 PM)28% (Nov 12, 2:00 PM)29.09 "Hg (Nov 17, 5:00 PM)
Average26 °F74%29.90 "Hg
* Reported Nov 9 8:00 PM — Nov 24 8:00 PM, Red Deer, Weather by CustomWeather, © 2015

Note: Actual official high and low records may vary slightly from our data, if they occured in-between our weather recording intervals... More about our weather records


Red Deer weather history for previous 24 hours

Time TempWeatherWind HumidityBarometerVisibility
8:00 PM
Tue, Nov 24
7 °FFrigid.2 mph85%30.45 "Hg15 mi
7:00 PM9 °FPassing clouds.5 mph78%30.45 "Hg15 mi
6:00 PM10 °FOvercast.9 mph79%30.44 "Hg15 mi
5:00 PM9 °FPassing clouds.9 mph78%30.44 "Hg15 mi
4:00 PM10 °FScattered clouds.12 mph72%30.41 "Hg15 mi
3:00 PM12 °FScattered clouds.14 mph79%30.38 "Hg15 mi
2:00 PM16 °FLight snow. Partly sunny.15 mph73%30.37 "Hg10 mi
1:00 PM16 °FLight snow. Partly sunny.13 mph79%30.35 "Hg2 mi
12:00 PM16 °FLight snow. Overcast.15 mph86%30.35 "Hg2 mi
11:00 AM18 °FLight snow. Overcast.14 mph79%30.34 "Hg1 mi
10:00 AM18 °FLight snow. Overcast.18 mph79%30.32 "Hg1 mi
9:00 AM18 °FLight snow. Overcast.17 mph86%30.29 "Hg1 mi
8:00 AM19 °FLight snow. Overcast.17 mph86%30.25 "Hg2 mi
7:00 AM19 °FLight snow. Overcast.16 mph93%30.21 "Hg1 mi
6:00 AM21 °FLight snow. Ice fog.17 mph86%30.17 "Hg2 mi
5:00 AM21 °FLight snow. Overcast.20 mph86%30.14 "Hg3 mi
4:00 AM21 °FLight snow. Passing clouds.15 mph86%30.11 "Hg2 mi
3:00 AM21 °FLight snow. Ice fog.14 mph93%30.07 "Hg2 mi
2:00 AM21 °FLight snow. Ice fog.14 mph93%30.03 "Hg2 mi
1:00 AM23 °FLight snow. Ice fog.14 mph86%29.99 "Hg2 mi
12:00 AM23 °FLight snow. Ice fog.15 mph93%29.97 "Hg1 mi
11:00 PM
Mon, Nov 23
25 °FLight snow. Low clouds.13 mph93%29.93 "Hg2 mi
10:00 PM25 °FLight snow. Low clouds.12 mph93%29.91 "Hg2 mi
Weather by CustomWeather, © 2015

See weather overviewHow to use our weather pages